Location: Newark
(52.3500°N, 175.9667°E)
Time: 21:09:35
(UTC+00:00)

Altair - Pass Details

Date: 24 April 2021
Orbit: 1501 x 1683 km, 47.2° (Epoch: 05 May)

Event Time Altitude Azimuth Distance (km) Brightness Sun altitude
Rises 19:10:28 0° 257° (WSW) 4,872 9.5 18.9°
Reaches altitude 10° 19:13:40 10° 255° (WSW) 3,864 9.1 19.4°
Maximum altitude 19:23:20 66° 176° (S) 1,712 8.2 20.9°
Drops below altitude 10° 19:32:38 10° 98° (E) 3,722 11.7 22.3°
Sets 19:35:39 0° 95° (E) 4,685 11.5 22.8°
